Estación Meteorológica Peña el Pijo (Robertgarden) [ 12/11/19 23:09:09 CET ]

Fecha Hora Presion(HPa) Temp (°C) Humedad % Rocio (°C) Viento ( m/s) Direccion Lluvia 1Hora(mm) Lluvia 24H(mm) LLuvia Total(mm)
2019-Dec-09 01:09:30 1014.300 - - - - S     39.88
2019-Dec-09 02:13:57 1014.200 - - - - S     39.88
2019-Dec-09 03:10:04 1014.800 - - - - S     39.88
2019-Dec-09 04:09:35 1014.400 - - - - S     39.88
2019-Dec-09 05:14:12 1014.200 - - - - S     39.88
2019-Dec-09 06:09:17 1014.700 - - - - S     39.88
2019-Dec-09 07:09:22 1015.600 - - - - S     39.88
2019-Dec-09 08:09:21 1015.900 - - - - S     39.88
2019-Dec-09 09:09:26 1016.300 - - - - S     39.88
2019-Dec-09 10:08:59 1016.700 - - - - S     39.88
2019-Dec-09 11:08:55 1017.200 - - - - S     39.88
2019-Dec-09 12:08:59 1016.900 - - - - S     39.88
2019-Dec-09 13:09:26 1016.000 - - - - S     39.88
2019-Dec-09 14:09:05 1015.700 - - - - S     39.88
2019-Dec-09 15:09:22 1015.800 - - - - S     39.88
2019-Dec-09 16:09:19 1015.700 - - - - S     39.88
2019-Dec-09 17:09:16 1016.000 - - - - S     39.88
2019-Dec-09 18:09:29 1016.100 - - - - S     39.88
2019-Dec-09 19:08:55 1016.600 - - - - S     39.88
2019-Dec-09 20:09:23 1017.200 - - - - S     39.88
2019-Dec-09 21:09:04 1017.200 - - - - S     39.88
2019-Dec-09 22:09:04 1017.000 - - - - S     39.88
2019-Dec-09 23:08:58 1017.300 - - - - S     39.88

Temperatura Máxima:    Temperatura Mínima:
Presión Máxima:1017.300 Hpa    Presión Mínima:1014.200 Hpa


Volver